Wise, VA

6:47 AM EDT on March 26, 2017 (GMT -0400)
Lonesome Pine

Weather History for KLNP - February, 2013

Change the Weather History Date:

Tuesday, February 26, 2013

  Actual Average Record
Temperature  
Mean Temperature 42 °F -  
Max Temperature 48 °F 46 °F 69 °F (1998)
Min Temperature 37 °F 29 °F 17 °F (2014)
Degree Days  
Heating Degree Days 22    
Moisture  
Dew Point 38 °F    
Average Humidity 87    
Maximum Humidity 100    
Minimum Humidity 70    
Precipitation  
Precipitation 0.26 in - - ()
Sea Level Pressure  
Sea Level Pressure 29.63 in    
Wind  
Wind Speed 10 mph (SSE)    
Max Wind Speed 25 mph    
Max Gust Speed 34 mph    
Visibility 6 miles    
Events Rain , Thunderstorm    
Averages and records for this station are not official NWS values.
T = Trace of Precipitation, MM = Missing Value Source: NWS Daily Summary

Daily Weather History Graph

Daily Weather History Graph

Search for Another Location

Airport or City:

Trip Planner

Search our weather history database for the weather conditions in past years. The results will help you decide how hot, cold, wet, or windy it might be!

Date:

Astronomy

Feb. 26, 2013 Rise Set
Actual Time 7:04 AM EST 6:21 PM EST
Civil Twilight 6:38 AM EST 6:47 PM EST
Nautical Twilight 6:08 AM EST 7:17 PM EST
Astronomical Twilight 5:38 AM EST 7:48 PM EST
Moon 7:33 PM EST 7:09 AM EST
Length of Visible Light 12h 09m
Length of Day
11h 16m
Full, 99% of the Moon is Illuminated
Feb 26
Full
Mar 4
Last Quarter
Mar 11
New
Mar 19
First Quarter
Mar 27
Full

Hourly Weather History & Observations

Time (EST) Temp. Windchill Dew Point Humidity Pressure Visibility Wind Dir Wind Speed Gust Speed Precip Events Conditions
12:15 AM 41.0 °F 35.2 °F 32.0 °F 70% 29.88 in 7.0 mi SSE 9.2 mph 16.1 mph N/A   Scattered Clouds
12:35 AM 41.0 °F 35.2 °F 32.0 °F 70% 29.87 in 7.0 mi South 9.2 mph 19.6 mph N/A   Scattered Clouds
12:55 AM 41.0 °F 35.8 °F 32.0 °F 70% 29.86 in 7.0 mi SSE 8.1 mph - N/A   Mostly Cloudy
1:15 AM 41.0 °F 34.7 °F 32.0 °F 70% 29.85 in 7.0 mi SSE 10.4 mph 16.1 mph N/A   Overcast
1:35 AM 41.0 °F 35.8 °F 32.0 °F 70% 29.84 in 7.0 mi SSE 8.1 mph 18.4 mph N/A   Overcast
1:55 AM 41.0 °F 37.1 °F 32.0 °F 70% 29.84 in 5.0 mi SE 5.8 mph - N/A   Haze
2:15 AM 41.0 °F 36.4 °F 32.0 °F 70% 29.83 in 5.0 mi SE 6.9 mph - N/A   Haze
2:35 AM 39.2 °F 33.6 °F 32.0 °F 75% 29.81 in 7.0 mi SE 8.1 mph - N/A   Clear
2:55 AM 39.2 °F 32.5 °F 32.0 °F 75% 29.80 in 5.0 mi SSE 10.4 mph 18.4 mph N/A   Haze
3:15 AM 39.2 °F 32.0 °F 32.0 °F 75% 29.79 in 7.0 mi SSE 11.5 mph 18.4 mph N/A   Clear
3:35 AM 39.2 °F 32.5 °F 32.0 °F 75% 29.78 in 7.0 mi SSE 10.4 mph 17.3 mph N/A   Clear
3:55 AM 39.2 °F 33.6 °F 32.0 °F 75% 29.77 in 7.0 mi SSE 8.1 mph 18.4 mph N/A   Clear
4:15 AM 39.2 °F 33.0 °F 32.0 °F 75% 29.77 in 7.0 mi SSE 9.2 mph 17.3 mph N/A   Clear
4:35 AM 41.0 °F 34.7 °F 33.8 °F 76% 29.77 in 7.0 mi SSE 10.4 mph 20.7 mph N/A   Mostly Cloudy
4:55 AM 41.0 °F 34.3 °F 33.8 °F 76% 29.77 in 7.0 mi SSE 11.5 mph 24.2 mph N/A   Overcast
5:15 AM 41.0 °F 34.3 °F 33.8 °F 76% 29.77 in 5.0 mi SSE 11.5 mph 26.5 mph N/A   Haze
5:35 AM 39.2 °F 30.8 °F 33.8 °F 81% 29.77 in 5.0 mi SSE 15.0 mph 20.7 mph N/A   Haze
5:55 AM 41.0 °F 32.8 °F 33.8 °F 76% 29.77 in 7.0 mi SSE 16.1 mph 24.2 mph N/A   Overcast
6:15 AM 39.2 °F 31.6 °F 35.6 °F 87% 29.75 in 7.0 mi SSE 12.7 mph 21.9 mph N/A Rain Light Rain
6:35 AM 37.4 °F 28.9 °F 37.4 °F 100% 29.72 in 7.0 mi SE 13.8 mph 25.3 mph 0.02 in Rain Light Rain
6:55 AM 37.4 °F 30.3 °F 37.4 °F 100% 29.71 in 7.0 mi SSE 10.4 mph 25.3 mph 0.03 in Rain Light Rain
7:15 AM 37.4 °F 30.3 °F 37.4 °F 100% 29.71 in 5.0 mi SE 10.4 mph 18.4 mph 0.01 in Rain Light Rain
7:35 AM 37.4 °F 30.8 °F 37.4 °F 100% 29.69 in 5.0 mi SSE 9.2 mph 19.6 mph 0.03 in Rain Rain
7:55 AM 39.2 °F 33.6 °F 39.2 °F 100% 29.69 in 3.0 mi SSE 8.1 mph 19.6 mph 0.06 in Rain Rain
8:15 AM 39.2 °F 33.6 °F 39.2 °F 100% 29.66 in 5.0 mi ESE 8.1 mph 21.9 mph 0.02 in Rain Light Rain
8:35 AM 39.2 °F 33.0 °F 39.2 °F 100% 29.65 in 5.0 mi ESE 9.2 mph 16.1 mph 0.02 in   Overcast
8:55 AM 41.0 °F 34.3 °F 41.0 °F 100% 29.64 in 3.0 mi SE 11.5 mph 19.6 mph 0.05 in Rain Rain
9:15 AM 41.0 °F 34.3 °F 41.0 °F 100% 29.62 in 7.0 mi SE 11.5 mph 19.6 mph N/A Rain Light Rain
9:35 AM 41.0 °F 34.7 °F 41.0 °F 100% 29.62 in 7.0 mi SE 10.4 mph 24.2 mph 0.01 in Rain Light Rain
9:55 AM 42.8 °F 36.6 °F 42.8 °F 100% 29.62 in 5.0 mi SE 11.5 mph 28.8 mph 0.01 in   Overcast
10:15 AM 42.8 °F 37.5 °F 42.8 °F 100% 29.59 in - SE 9.2 mph - N/A Rain Light Rain
10:35 AM 42.8 °F 37.5 °F 42.8 °F 100% 29.58 in 4.0 mi SSE 9.2 mph 23.0 mph 0.01 in   Overcast
10:55 AM 42.8 °F 37.5 °F 42.8 °F 100% 29.57 in 4.0 mi SE 9.2 mph 23.0 mph 0.01 in Rain Light Rain
11:15 AM 44.6 °F 38.8 °F 44.6 °F 100% 29.54 in 4.0 mi SE 11.5 mph 26.5 mph N/A   Overcast
11:35 AM 46.4 °F 40.4 °F 44.6 °F 93% 29.54 in 2.5 mi SSE 13.8 mph 24.2 mph N/A   Overcast
11:55 AM 46.4 °F 40.1 °F 42.8 °F 87% 29.56 in 2.5 mi SSE 15.0 mph 21.9 mph N/A   Haze
12:15 PM 46.4 °F 40.7 °F 41.0 °F 81% 29.56 in 2.5 mi SSE 12.7 mph 23.0 mph N/A   Haze
12:35 PM 44.6 °F 41.4 °F 41.0 °F 87% 29.55 in 3.0 mi SE 5.8 mph - N/A   Overcast
1:15 PM 44.6 °F 40.7 °F 41.0 °F 87% 29.54 in 0.8 mi SSE 6.9 mph - 0.03 in Rain Rain
1:35 PM 44.6 °F 40.7 °F 42.8 °F 93% 29.52 in 7.0 mi SSE 6.9 mph - 0.05 in Rain Light Rain
1:55 PM 42.8 °F 38.6 °F 42.8 °F 100% 29.52 in 3.0 mi SSE 6.9 mph - 0.09 in Rain Light Rain
2:15 PM 44.6 °F 39.2 °F 44.6 °F 100% 29.49 in 5.0 mi SSE 10.4 mph 16.1 mph 0.01 in   Overcast
2:35 PM 44.6 °F 40.2 °F 44.6 °F 100% 29.47 in 5.0 mi SSE 8.1 mph 18.4 mph 0.01 in   Overcast
2:55 PM 46.4 °F 41.5 °F 44.6 °F 93% 29.46 in 4.0 mi SSE 10.4 mph 19.6 mph 0.01 in   Overcast
3:15 PM 44.6 °F 40.7 °F 44.6 °F 100% 29.47 in 2.5 mi SSE 6.9 mph 17.3 mph N/A   Overcast
3:35 PM 44.6 °F 41.4 °F 44.6 °F 100% 29.48 in 4.0 mi East 5.8 mph - N/A   Overcast
3:55 PM 46.4 °F - 44.6 °F 93% 29.46 in 3.0 mi Calm Calm - N/A   Overcast
4:15 PM 46.4 °F 42.9 °F 42.8 °F 87% 29.45 in 3.0 mi SE 6.9 mph - N/A   Overcast
4:35 PM 48.2 °F - 42.8 °F 82% 29.45 in 3.0 mi SSE 4.6 mph - N/A   Haze
5:15 PM 48.2 °F - 42.8 °F 82% 29.45 in 3.0 mi SSE 6.9 mph - N/A Thunderstorm Unknown
5:35 PM 46.4 °F 42.9 °F 42.8 °F 87% 29.47 in 7.0 mi SSE 6.9 mph - N/A   Overcast
5:55 PM 46.4 °F 43.5 °F 42.8 °F 87% 29.48 in 5.0 mi South 5.8 mph - N/A   Overcast
6:15 PM 46.4 °F 43.5 °F 42.8 °F 87% 29.50 in 3.0 mi South 5.8 mph - N/A   Overcast
6:35 PM 44.6 °F 37.8 °F 44.6 °F 100% 29.52 in 2.5 mi SW 15.0 mph 24.2 mph N/A   Overcast
6:55 PM 44.6 °F 35.5 °F 42.8 °F 93% 29.53 in 7.0 mi WSW 25.3 mph 34.5 mph N/A   Overcast
7:15 PM 44.6 °F 36.6 °F 41.0 °F 87% 29.54 in 7.0 mi SW 19.6 mph 28.8 mph N/A   Overcast
7:35 PM 44.6 °F 36.1 °F 41.0 °F 87% 29.55 in 7.0 mi SW 21.9 mph 29.9 mph N/A   Overcast
7:55 PM 42.8 °F 34.3 °F 37.4 °F 81% 29.56 in 10.0 mi SW 19.6 mph 33.4 mph N/A   Overcast
8:15 PM 42.8 °F 34.5 °F 35.6 °F 76% 29.56 in 10.0 mi SW 18.4 mph 25.3 mph N/A   Scattered Clouds
8:35 PM 41.0 °F 34.3 °F 35.6 °F 81% 29.56 in 10.0 mi SW 11.5 mph 20.7 mph N/A   Mostly Cloudy
8:55 PM 41.0 °F 33.1 °F 35.6 °F 81% 29.57 in 7.0 mi SW 15.0 mph 23.0 mph N/A   Mostly Cloudy
9:15 PM 41.0 °F 34.7 °F 35.6 °F 81% 29.58 in 10.0 mi SW 10.4 mph - N/A   Overcast
9:35 PM 41.0 °F 33.5 °F 35.6 °F 81% 29.59 in 10.0 mi SW 13.8 mph - N/A   Overcast
9:55 PM 41.0 °F 32.8 °F 35.6 °F 81% 29.59 in 10.0 mi SW 16.1 mph - N/A   Overcast
10:15 PM 41.0 °F 32.5 °F 35.6 °F 81% 29.60 in 10.0 mi SW 17.3 mph 23.0 mph N/A   Overcast
10:35 PM 41.0 °F 33.5 °F 35.6 °F 81% 29.61 in 7.0 mi SW 13.8 mph 19.6 mph N/A   Overcast
10:55 PM 41.0 °F 35.2 °F 35.6 °F 81% 29.60 in 7.0 mi WSW 9.2 mph - N/A   Overcast
11:15 PM 39.2 °F 33.6 °F 35.6 °F 87% 29.60 in 7.0 mi SW 8.1 mph 17.3 mph N/A   Overcast
11:35 PM 39.2 °F 30.8 °F 35.6 °F 87% 29.59 in 7.0 mi WSW 15.0 mph 23.0 mph N/A   Overcast
11:55 PM 39.2 °F 30.8 °F 35.6 °F 87% 29.59 in 7.0 mi SW 15.0 mph 23.0 mph N/A   Overcast